User: anonymous   Login
Location: Unspecified
(0.0000°N, 0.0000°E)
Time: 17:48:15
(UTC+01:00)
Language:

NOSS 2-2 (E) - Orbit

View from above orbital plane
View from above orbital plane
View from above satellite
View from above satellite

Ground track
Ground track

The orbit data is extracted from the following two-line orbital elements,

1 21809U 91076E   18052.19516148 0.00000060  00000-0  17440-4 0    03
2 21809  63.3450 174.9471 0768000  25.3883 334.6117 13.41398663    05
Epoch (UTC): 21 February 2018 04:41:01
Eccentricity: 0.0768000
inclination: 63.3450°
perigee height: 529 km
apogee height: 1679 km
right ascension of ascending node: 174.9471°
argument of perigee: 25.3883°
revolutions per day: 13.41398663
mean anomaly at epoch: 334.6117°
orbit number at epoch: 0

The dashed part of the orbit path shows where the satellite is in the earth's shadow,  

DLR